Regional Weather Roundup
Issued by NWS Upton, NY

Current Version | Previous Version | Graphics & Text | Print | Product List | Glossary Off
Versions: 1 2 3 4 5 6 7 8 9 10 11 12 13 14 15 16 17 18 19 20 21 22 23 24 25 26 27 28 29 30 31 32 33 34 35 36 37 38 39 40 41 42 43 44 45 46 47 48 49 50

000
ASUS41 KOKX 240809
RWROKX

REGIONAL WEATHER ROUNDUP
NATIONAL WEATHER SERVICE NEW YORK NY
400 AM EDT SAT JUN 24 2017

NOTE: "FAIR" INDICATES FEW OR NO CLOUDS BELOW 12,000 FEET WITH NO
SIGNIFICANT WEATHER AND/OR OBSTRUCTIONS TO VISIBILITY.

NYZ071-072-176-178-NJZ106-104-240900-
NEW YORK CITY METRO AREA

CITY           SKY/WX    TMP DP  RH WIND       PRES   REMARKS
Central Park   CLOUDY    72  71  97 VRB3      29.63F
Bronx Bot Gard   N/A     72  70  94 S1        29.60F
LaGuardia APRT CLOUDY    75  72  90 SW7       29.59F
Kennedy INTL   CLOUDY    74  73  97 SW6       29.61F
Breezy Point     N/A     70 N/A N/A SW3         N/A
Newark/Liberty CLOUDY    73  71  93 SW5       29.59F
Teterboro      CLOUDY    73  71  93 SW8       29.59S
$$

NYZ177-179-078>081-240900-
LONG ISLAND NEW YORK

CITY           SKY/WX    TMP DP  RH WIND       PRES   REMARKS
Jones Beach      N/A     66 N/A N/A SW3         N/A
Matinecock PT  NOT AVBL
Farmingdale    NOT AVBL
MacArthur/ISP  CLOUDY    72  70  93 SW10      29.61S
Shirley        CLOUDY    73  71  93 SW8       29.62F
Mt Sinai Harb    N/A    N/A N/A N/A SW7         N/A
Westhampton    PTCLDY    71  66  84 SW15G24   29.64S
East Hampton   FAIR      71  68  89 W15       29.61F
Montauk        NOT AVBL
$$

NYZ052-065-067-240900-
HUDSON VALLEY

CITY           SKY/WX    TMP DP  RH WIND       PRES   REMARKS
White Plains   NOT AVBL
Larchmont Harb   N/A     72 N/A N/A S9          N/A
Croton O-T Hud   N/A     73 N/A N/A W5          N/A
Newburgh       CLOUDY    73  72  94 W8        29.61S
Montgomery     LGT RAIN  73  71  93 SW10      29.59S
Poughkeepsie   LGT RAIN  75  70  84 SW6       29.56F
Albany         CLOUDY    73  69  87 W5        29.53S
$$

NJZ001-105-106-008-010-013-015-019>022-104-240900-
NEW JERSEY

CITY           SKY/WX    TMP DP  RH WIND       PRES   REMARKS
Newark/Liberty CLOUDY    73  71  93 SW5       29.59F
Teterboro      CLOUDY    73  71  93 SW8       29.59S
Caldwell       LGT RAIN  74  71  91 S3        29.60F
Somerville     HVY RAIN  72  71  97 VRB5      29.61R FOG
Linden         CLOUDY    73  70  89 CALM      29.60F
Perth Amboy      N/A     73 N/A N/A SW3         N/A
Sussex         RAIN      72  72 100 CALM      29.60F FOG
Andover          N/A     71  70  96 SW3       29.62F
Trenton        LGT RAIN  73  72  96 CALM      29.60F
Millville      LGT RAIN  81  75  82 SW8       29.63F
Atlantic City  CLOUDY    76  71  85 S9        29.63F
Wrightstown    CLOUDY    80  71  74 SW13      29.58F
Toms River     CLOUDY    80  72  76 SW10      29.62F
Belmar         CLOUDY    79  72  79 SW6       29.62F
$$

PAZ047>061-062-071-240900-
EASTERN PENNSYLVANIA

CITY           SKY/WX    TMP DP  RH WIND       PRES   REMARKS
Philadelphia   CLOUDY    82  70  66 SW13      29.61F
Allentown      RAIN      71  68  90 W5        29.61F
Scranton       LGT RAIN  71  70  96 SW7       29.61F
$$

CTZ002-004>006-009-010-012-RIZ004-006-007-MAZ004-011-015-240900-
SOUTHERN NEW ENGLAND
 IN CT

CITY           SKY/WX    TMP DP  RH WIND       PRES   REMARKS
Bradley INTL   CLOUDY    76  71  85 S12       29.55S
Hartford       MOCLDY    76  71  85 S10       29.55S
Danbury        CLOUDY    74  71  91 SW12      29.61F
Wtrbury/Oxford MOCLDY    73  66  78 SW5       29.61F
Bridgeport     LGT RAIN  73  69  87 SW9       29.60S
Meriden        CLOUDY    73  70  90 S7        29.58R
New Haven      NOT AVBL
Chester        FAIR      73  72  94 SW9G15    29.60S
Groton         MOCLDY    72  68  87 SW8       29.58F
Wilimantic     PTCLDY    77  72  84 SW7       29.57F

 IN RI

CITY           SKY/WX    TMP DP  RH WIND       PRES   REMARKS
Providence     PTCLDY    74  72  93 SW9       29.57F
Block Island   MOCLDY    67  65  93 SW14G22   29.62S
Westerly       PTCLDY    72  69  90 SW10G18   29.60F
 IN MA

CITY           SKY/WX    TMP DP  RH WIND       PRES   REMARKS
Boston         CLOUDY    71  70  96 S12       29.52F
Worcester      CLOUDY    72  69  90 SW10G21   29.56F
Westfield      CLOUDY    74  72  93 S8          N/A
Provincetown   CLOUDY    68  66  93 SW18G24   29.58F FOG
Nantucket      CLOUDY    66  66 100 SW17G25   29.65F FOG
$$

ANZ330-335-338-340-345-350-353-355-240900-
COASTAL MARINE OBSERVATIONS


STATION/POSITION TIME  SKY/WX   TEMP    WIND        PRES    VSBY  WAVE
                                AIR SEA DIR/SP/G                  HT/PER
                 (UTC)          (F)     (DEG/KT/KT) (MB)    (MI)  (FT/S)
NY HARB ENTRANCE 0750            67 66  200/  8/ 12 1002.8          4/ 7
20 S FIRE ISLAND 0750            71 68  220/ 21/ 23 1002.3          7/ 7
GREAT SOUTH BAY  0730            72 76  250/ 16/ 21   N/A
23 SSW MONTAUK P 0750            69 64              1003.0          7/ 7
15 E BARNEGAT LI 0730               60                N/A           6/ 7
HUDSON CANYON    0750            71 66  210/ 19/ 23 1004.9          7/ 7
KINGS POINT      0736            72 65  290/  7/ 10 1002.4
EXECUTION ROCKS  0745            71     210/  8/ 10   N/A
CENTRAL LI SOUND 0730            73     220/ 14/ 16   N/A           1
EASTERN LI SOUND NOT AVBL
ROBBINS REEF     0748                   250/  9/ 10 1002.9
$$


>>>>>>>>>>>>>>>>>>>>>>>>>>>> KEY <<<<<<<<<<<<<<<<<<<<<<<<<<<
>                                                          <
>     SKY/WX - Sky Condition/Present Weather               <
>     TMP    - Temperature in Fahrenheit                   <
>     DP     - Dew Point in Fahrenheit                     <
>     RH     - Relative Humidity in Percent                <
>     WIND   - Direction (from) and Speed in MPH           <
>     PRES   - Mean Sea Level Pressure (inches of Hg)      <
>     WCI    - Wind Chill Index                            <
>     VSB    - VISIBILITY IN MILES                         <
>     HX     - HEAT INDEX                                  <
>     TC     - TEMPERATURE IN CELSIUS                      <
>     VRB    - VARIABLE WIND DIRECTION                     <
>                                                          <
>>>>>>>>>>>>>>>>>>>>>>>>>>>> KEY <<<<<<<<<<<<<<<<<<<<<<<<<<<



USA.gov is the U.S. government's official web portal to all federal, state and local government web resources and services.